Location: Denia
(38.8500°N, 0.1170°E)
Time: 01:32:42
(UTC+01:00)

Envisat - Pass Details

Date: 26 January 2020
Orbit: 764 x 766 km, 98.1° (Epoch: 24 February)

Event Time Altitude Azimuth Distance (km) Brightness Sun altitude
Rises 19:28:31 0° 187° (S) 3,217 6.5 -14.7°
Reaches altitude 10° 19:30:59 10° 196° (SSW) 2,295 5.8 -15.2°
Maximum altitude 19:35:38 37° 263° (W) 1,182 4.6 -16.1°
Drops below altitude 10° 19:40:20 10° 330° (NNW) 2,310 5.7 -17.0°
Sets 19:42:49 0° 339° (NNW) 3,240 6.4 -17.5°
